RH
50 53 61 63 58 56 54 46 31 24 24 12 3 4 4 3 3 3 2 1 3 4 6 6 5 4 2 2 2 2 2 2 2 2 2 2 2 2 1 2 2 2 2 2 3 2 3 3 4 3 6 11 8 6 6 5 6 12 23 25 24 22 14 13 18 17 11 9 8 7 8 9 10 11 12 13 13 13 20 35 44 41 32 24 19 17 17 16
54 50 56 61 51 50 50 32 16 16 14 5 3 4 3 3 3 2 2 3 5 7 7 6 4 3 2 2 2 2 2 2 2 2 2 2 2 2 2 2 2 2 3 3 3 3 4 3 4 4 10 19 14 10 10 6 6 13 23 26 24 19 12 11 14 10 7 9 9 9 11 11 13 14 14 15 15 17 23 29 32 30 24 18 16 16 16 15
61 49 52 58 45 43 44 23 8 8 5 3 4 4 4 3 3 2 4 5 7 8 8 6 4 2 2 2 2 2 2 2 2 2 2 2 2 2 2 2 2 3 3 3 3 4 4 4 5 5 13 21 13 12 14 9 7 11 19 21 15 11 13 13 9 8 9 11 12 13 14 14 16 16 16 17 18 21 21 19 20 22 20 19 19 19 19 19
68 52 48 55 44 37 33 16 6 4 2 4 5 5 5 4 4 4 5 6 6 5 6 6 4 2 3 2 2 3 2 2 2 2 2 2 2 2 2 3 3 4 3 4 4 4 5 5 6 6 17 24 16 14 14 8 9 13 15 14 10 8 12 13 10 11 13 13 15 15 15 15 16 15 17 19 20 21 20 19 20 20 20 23 22 21 22 22
71 55 46 47 37 30 23 10 4 3 4 6 7 7 6 6 6 6 6 6 4 3 4 5 4 4 4 4 4 5 5 3 2 2 2 2 3 2 3 4 3 4 4 5 4 5 6 5 7 8 15 21 17 16 11 6 12 19 16 10 10 11 11 12 13 14 15 15 15 14 15 14 13 17 20 19 18 19 21 21 20 20 21 22 23 23 24 23
61 47 40 35 26 25 19 8 3 4 6 7 8 7 6 7 6 6 6 4 3 2 3 3 3 3 3 4 4 5 6 4 2 2 2 2 3 3 4 4 4 5 4 5 5 6 6 6 8 9 11 12 11 11 10 9 13 18 16 11 12 12 12 14 14 15 14 13 14 13 13 11 15 23 24 20 20 22 24 23 21 21 20 19 21 22 22 23
52 37 29 24 22 21 13 5 4 6 8 8 8 7 6 7 6 6 4 2 2 2 2 2 2 3 2 3 2 3 3 2 2 2 3 3 4 4 4 5 5 5 5 6 6 6 7 7 8 8 9 11 10 9 10 12 11 13 13 12 13 12 12 14 13 12 12 12 12 12 11 13 21 24 22 21 24 26 24 22 21 19 19 19 20 20 21 22
46 30 24 28 27 16 5 3 6 7 8 8 7 7 7 6 5 4 2 2 2 2 3 2 2 3 2 2 2 2 2 3 3 3 4 4 4 4 5 5 5 6 6 7 7 7 8 7 8 8 9 11 10 10 11 11 10 11 12 12 13 12 13 14 12 11 11 11 11 12 12 17 23 20 21 24 25 26 21 19 20 20 20 21 21 21 22 23
40 30 26 27 19 6 2 5 6 7 7 7 7 7 6 4 3 3 2 2 2 2 3 2 2 2 2 3 2 3 3 3 3 4 4 4 5 5 5 6 6 7 7 7 8 8 8 9 9 9 10 10 10 11 11 11 11 11 12 12 12 14 17 16 13 12 12 11 11 13 14 19 24 21 21 23 23 23 19 18 21 21 21 22 22 23 23 24
27 21 15 10 5 3 5 6 7 8 7 7 7 7 6 3 2 2 2 2 2 3 3 3 3 2 2 2 3 3 3 4 4 4 5 5 6 6 6 7 7 7 7 8 8 9 9 9 9 9 9 9 10 11 11 12 11 10 11 10 11 15 20 18 15 14 12 12 12 14 20 22 23 23 21 21 23 22 17 18 21 20 22 22 22 23 23 25
11 6 4 3 3 5 7 7 8 8 7 7 6 6 4 2 2 2 2 3 3 3 3 3 3 2 3 2 3 3 4 4 5 5 5 6 6 6 7 7 7 8 8 9 9 9 9 8 9 8 9 9 9 10 11 11 10 9 10 10 11 15 22 21 16 16 13 13 12 16 30 29 22 22 21 21 25 22 17 19 21 21 21 21 21 21 23 25
4 3 3 4 6 6 8 8 8 8 7 6 5 4 3 1 2 2 2 3 3 3 3 3 3 3 3 3 3 4 4 5 5 6 6 6 7 7 7 8 8 8 8 9 9 9 9 9 8 8 9 8 8 10 11 10 9 10 11 14 16 18 26 24 17 17 15 13 11 15 31 32 23 22 22 24 26 21 18 20 21 20 20 20 19 20 23 25
4 4 6 6 8 8 8 8 8 7 6 5 4 3 2 2 2 2 3 3 3 3 3 3 3 3 4 4 4 4 5 6 6 7 7 7 8 8 8 8 8 8 8 8 8 9 9 8 8 9 9 8 8 11 12 9 8 10 12 15 16 18 24 23 18 18 15 14 13 13 26 30 23 22 23 24 23 18 17 19 19 19 19 19 20 22 25 28
10 4 7 9 8 9 8 8 8 5 3 4 3 2 2 3 3 3 4 3 3 4 4 3 4 4 4 5 5 5 6 6 7 7 7 8 8 8 8 9 8 8 8 8 8 8 8 8 9 9 8 8 8 9 11 10 9 12 15 15 13 13 17 20 21 19 15 15 14 14 23 29 22 20 22 21 20 18 17 20 19 19 20 20 24 27 29 32
18 8 7 10 9 9 9 7 5 3 3 3 2 3 3 3 3 4 4 4 4 4 4 4 5 4 5 5 6 6 7 7 7 7 8 8 8 9 8 8 9 8 8 8 8 8 9 8 8 8 8 9 7 10 16 15 11 12 15 16 14 14 18 23 25 22 16 14 15 14 20 28 24 19 19 19 19 19 18 20 19 20 22 25 29 31 32 36
20 13 7 9 10 8 6 5 4 3 3 3 3 4 3 4 4 4 4 5 5 5 5 5 5 6 6 7 7 7 7 8 8 8 8 8 8 8 8 9 8 8 8 9 8 9 9 8 8 7 8 8 7 13 18 14 11 11 14 18 20 20 22 26 25 20 18 14 13 13 18 27 23 16 16 19 21 20 20 20 20 22 25 29 32 32 35 39
16 13 8 9 9 6 4 4 4 4 4 4 4 4 4 4 4 4 4 5 5 5 5 6 7 7 7 7 8 8 8 8 8 8 8 8 9 8 9 9 8 8 8 8 9 9 9 7 8 7 7 9 8 10 13 12 13 13 13 17 22 24 25 30 28 19 16 15 13 13 20 24 17 14 18 20 22 21 21 22 22 25 28 32 34 35 38 38
13 12 8 8 9 6 3 4 4 4 4 4 4 4 4 5 4 5 5 5 5 6 6 7 10 10 10 8 8 9 8 9 8 9 9 8 9 8 9 9 8 9 8 9 9 9 10 8 8 8 7 8 9 10 12 15 18 18 17 16 19 24 28 32 29 19 14 15 14 13 21 25 17 17 21 21 22 23 23 24 24 27 31 35 36 37 38 34
10 10 8 8 9 6 4 4 4 4 4 4 4 4 5 5 6 5 5 5 5 6 7 7 10 10 10 9 8 9 8 9 9 9 9 8 9 8 9 9 8 8 8 10 11 10 10 9 7 8 8 10 11 12 14 16 18 19 21 20 21 25 29 28 23 19 16 14 15 17 26 29 22 20 20 22 25 25 26 25 26 29 33 36 37 37 36 34
8 9 7 8 8 6 4 3 4 4 4 5 5 5 6 6 6 6 6 7 6 6 7 7 9 9 9 9 9 9 9 9 9 9 9 8 9 9 8 8 8 9 10 11 11 11 10 8 8 9 11 13 13 13 14 16 17 18 23 27 26 24 23 21 19 18 17 16 17 24 31 30 22 19 21 26 27 28 28 28 29 31 34 36 37 36 36 39
8 7 6 7 6 5 4 3 4 5 5 6 6 6 6 6 7 8 8 8 7 7 7 8 9 9 9 9 9 9 9 9 9 9 9 9 9 9 8 8 9 9 10 10 10 12 10 8 10 12 13 13 13 14 15 17 18 19 26 29 27 25 19 17 18 17 19 22 20 25 32 30 22 21 25 28 28 29 29 30 32 32 35 36 36 36 40 47
7 5 6 6 5 4 3 4 5 5 7 7 7 7 7 7 8 9 9 8 9 9 8 8 8 9 9 9 9 9 10 9 9 9 9 9 9 9 9 8 9 9 9 10 11 12 10 9 12 14 14 13 13 14 16 17 18 20 26 27 25 25 21 16 16 17 20 23 21 25 34 32 25 24 28 28 28 30 32 34 34 34 35 36 36 39 45 51
6 5 6 5 4 4 3 5 5 6 8 7 8 8 8 8 8 9 9 8 9 9 9 9 9 9 9 10 10 10 10 9 10 10 9 10 9 9 9 8 9 9 10 11 12 11 10 12 14 14 13 14 14 15 16 16 18 22 26 26 23 23 24 21 17 17 20 24 27 31 34 31 27 27 29 29 30 32 35 36 35 35 36 37 40 44 49 52
4 5 5 4 4 4 4 4 5 7 7 6 8 8 9 9 9 9 9 9 9 9 9 10 9 10 9 10 10 10 10 9 9 10 9 9 9 9 8 9 9 9 10 11 11 11 11 13 14 14 14 14 16 16 16 16 17 21 24 24 22 20 23 22 19 18 21 29 33 32 32 29 27 30 29 29 32 34 35 35 35 37 38 41 45 47 51 53
5 5 4 5 5 4 4 4 5 6 6 6 8 8 9 10 10 11 10 9 9 9 10 10 10 9 9 10 10 10 10 9 10 10 10 9 9 10 9 9 10 9 10 12 12 12 12 14 15 15 15 15 17 15 16 18 17 20 22 21 20 21 21 19 20 22 24 32 34 32 38 36 29 31 31 30 34 34 34 35 37 39 42 46 48 48 53 55
5 5 4 5 5 5 6 6 6 6 6 7 7 8 9 9 11 12 10 11 13 11 9 11 11 9 9 10 9 11 11 10 10 10 10 10 9 10 10 9 10 10 10 14 16 14 13 15 15 16 16 16 17 16 18 19 18 20 21 19 19 20 21 20 22 24 26 33 34 33 42 42 33 32 32 32 35 34 34 37 38 42 46 48 48 51 56 57
6 5 6 7 7 8 8 8 7 7 7 7 7 8 7 8 11 12 13 21 21 12 9 11 12 10 9 10 9 11 12 10 11 11 10 10 10 10 10 10 11 10 10 15 17 15 14 16 16 17 18 17 17 18 19 19 20 21 20 20 19 17 21 25 24 26 30 35 36 35 38 37 32 31 32 33 34 34 35 39 41 44 47 46 50 56 60 62
6 7 8 8 9 10 10 9 8 8 8 8 8 7 6 7 11 11 16 27 22 9 9 11 10 10 10 10 10 10 11 10 11 11 11 11 10 10 10 10 12 12 11 14 15 15 15 16 17 18 18 19 19 19 20 20 21 22 20 20 19 20 24 25 25 29 35 40 39 34 33 36 34 31 32 33 32 35 37 39 43 44 46 48 52 57 60 69
7 7 8 8 9 10 10 9 8 8 8 8 8 8 8 9 12 12 17 25 17 7 11 12 9 11 10 10 11 10 11 11 11 11 11 11 11 11 11 11 12 13 13 14 15 16 16 16 18 19 19 20 20 20 21 21 22 22 22 21 20 23 24 25 29 30 35 45 42 32 29 38 42 32 30 33 32 36 39 39 43 44 46 52 53 56 66 79
6 7 9 9 9 9 9 7 7 7 7 8 8 9 10 10 14 19 22 20 12 8 11 11 10 11 10 11 11 11 12 12 11 12 11 11 11 11 12 11 13 16 14 14 15 16 17 19 19 19 21 21 21 21 21 22 24 23 23 23 23 26 25 28 31 30 39 47 38 30 28 39 51 40 29 34 35 35 39 40 43 45 48 54 57 65 80 87
7 9 10 10 9 9 8 6 6 5 6 7 8 10 11 11 14 21 23 14 9 10 11 11 11 10 10 11 11 11 13 12 12 13 12 12 12 11 12 11 13 18 17 14 15 16 18 21 20 19 21 22 21 21 21 23 24 25 26 25 27 29 28 31 32 34 48 47 31 27 30 40 54 44 31 35 36 35 39 41 43 48 52 59 68 77 83 81
9 11 11 10 9 8 6 5 4 4 6 7 9 11 12 14 16 17 15 11 11 12 10 11 12 10 11 12 11 12 13 12 13 12 12 12 12 11 12 11 12 18 21 17 16 17 18 20 20 20 21 22 23 22 23 24 25 26 27 27 34 38 39 41 38 38 45 41 29 29 37 44 46 38 33 36 36 37 41 43 46 51 58 66 74 77 74 70
12 12 11 10 8 5 4 4 4 4 6 6 9 11 11 16 20 15 10 9 11 10 9 12 12 11 12 11 12 12 12 13 13 12 12 12 12 11 12 13 13 16 19 18 17 18 21 24 23 22 23 23 24 23 24 26 26 29 29 32 41 47 53 56 49 46 48 39 31 34 43 48 40 34 36 36 37 41 43 45 49 56 64 69 71 69 66 64
13 12 10 8 6 4 4 4 4 4 5 5 9 10 9 14 15 11 8 8 9 10 10 13 12 11 12 12 12 12 12 13 13 13 13 12 13 12 12 14 14 14 16 18 19 20 26 31 26 24 25 25 26 25 26 28 29 31 33 34 39 42 51 57 52 52 54 46 41 41 45 44 37 36 37 37 41 44 44 48 54 61 66 68 67 64 62 61
13 11 9 6 4 4 4 4 4 4 5 5 7 8 10 14 12 8 8 8 9 11 11 12 12 12 12 12 13 13 13 13 13 14 14 13 14 13 13 14 14 15 17 19 21 20 24 29 25 23 26 26 26 26 27 30 31 33 35 35 37 39 43 48 48 46 49 55 54 45 40 37 36 37 39 41 44 44 47 52 58 63 64 64 64 61 60 56
12 9 6 5 4 4 4 4 4 4 6 6 5 7 11 14 11 8 9 9 10 11 11 12 13 13 13 13 13 14 14 13 14 15 14 14 16 15 15 15 16 17 17 19 22 21 23 25 23 24 27 27 28 27 28 31 32 33 36 37 38 40 40 47 53 46 48 61 57 41 37 37 40 42 40 41 44 44 50 56 59 61 63 65 63 61 62 48
10 7 5 4 4 4 4 5 5 5 6 6 6 8 9 9 9 9 10 10 10 11 11 12 14 13 13 13 14 14 15 15 15 15 14 15 17 17 16 16 17 18 18 20 22 23 24 24 24 26 27 28 29 28 29 31 32 33 37 39 38 40 43 47 56 55 57 65 54 39 40 43 45 47 41 40 44 47 53 59 61 62 65 64 61 65 61 35
6 5 4 4 4 4 4 6 6 5 6 7 7 8 8 8 8 9 10 10 11 12 11 12 14 13 12 14 14 14 15 15 16 16 16 17 17 18 18 17 18 19 19 21 22 23 26 26 26 28 29 30 30 31 32 32 33 35 37 38 36 43 48 46 52 61 68 72 60 45 44 46 46 44 40 41 46 50 56 59 60 61 62 61 65 68 49 19
4 4 4 4 5 5 6 8 8 6 7 7 7 8 8 8 9 10 10 11 12 12 12 12 13 13 13 13 14 15 16 16 17 17 18 18 17 18 18 17 19 19 20 22 22 23 27 29 30 29 29 31 31 32 33 32 34 37 39 40 39 43 48 46 48 55 63 72 70 60 54 49 44 40 40 45 48 52 58 60 60 61 60 62 66 56 29 10
4 4 5 6 6 6 6 8 8 8 8 7 8 8 8 9 9 10 10 11 12 13 13 13 13 13 13 13 14 15 16 17 17 17 18 18 17 18 19 18 19 20 20 22 24 24 26 31 32 28 29 33 34 34 34 33 34 37 40 43 43 43 45 48 51 49 54 67 73 73 67 49 38 41 44 47 50 55 59 61 61 61 61 62 56 36 16 10
6 6 7 7 7 7 7 7 8 8 8 8 9 9 9 9 9 10 11 11 12 13 13 13 13 13 14 14 15 15 16 17 17 18 18 17 18 18 19 19 19 20 21 22 24 25 27 31 31 28 29 33 34 34 34 34 35 37 40 42 44 45 44 54 63 55 52 60 62 71 74 51 35 43 47 47 53 57 59 62 62 61 62 60 47 30 16 10
8 7 8 8 8 8 8 8 8 8 9 9 9 9 9 9 10 10 11 11 12 13 14 14 14 14 14 14 15 16 16 17 17 18 18 18 19 19 19 20 20 21 22 22 24 26 28 31 31 29 31 33 34 35 35 36 36 37 41 41 44 46 43 52 63 57 54 60 56 64 75 55 37 43 48 49 55 58 61 65 64 63 62 56 43 28 16 8
8 8 8 8 7 8 7 7 8 8 9 9 9 9 9 9 10 10 11 12 13 14 15 15 15 14 14 15 15 16 17 17 17 18 18 19 19 19 20 20 20 21 22 23 25 27 29 32 32 30 32 33 34 35 35 36 38 40 42 42 44 46 45 49 56 54 57 59 54 67 78 56 39 45 50 51 57 60 64 67 65 65 62 53 41 27 14 8
8 7 7 7 6 7 6 6 7 7 8 8 9 9 10 10 10 10 11 12 13 14 15 16 16 15 15 15 16 16 17 18 18 18 19 19 20 20 20 20 21 22 22 24 25 27 30 34 34 38 43 43 41 41 40 39 42 45 46 45 45 46 48 51 53 58 63 57 53 71 76 53 41 49 52 54 60 62 65 68 66 66 62 53 40 25 13 8
8 7 6 6 6 6 6 5 6 6 7 8 8 9 10 10 10 11 11 12 14 15 16 16 16 16 16 16 16 17 18 18 19 19 19 20 21 21 21 21 22 22 23 24 25 26 29 31 33 40 50 52 49 46 44 41 42 44 43 44 45 46 48 50 53 62 66 56 53 63 62 48 45 51 53 58 63 64 67 69 68 67 63 54 41 27 15 8
7 6 6 6 5 5 5 5 5 5 6 7 8 9 9 10 11 11 11 12 13 15 16 17 17 17 17 17 16 17 18 19 20 20 20 21 21 21 22 22 22 22 24 25 25 27 28 28 31 35 39 41 40 39 39 39 40 41 42 44 45 47 48 48 52 58 56 52 53 53 51 50 49 50 57 62 64 66 68 68 69 68 64 57 45 29 17 9
6 6 6 5 5 5 5 5 5 5 5 6 6 7 8 9 11 11 11 12 13 14 16 17 18 18 18 18 17 18 18 19 20 20 21 22 22 22 22 22 23 23 24 25 26 28 28 28 30 33 33 35 35 35 37 39 41 42 44 45 45 46 46 44 47 48 46 52 56 50 50 54 50 51 61 64 63 67 68 68 70 70 67 61 49 33 19 11
5 5 5 4 5 5 5 5 5 4 5 5 5 6 7 8 10 11 11 12 12 13 15 16 18 19 18 18 18 18 19 19 20 21 22 22 22 23 23 23 23 23 24 26 27 28 29 29 30 32 33 33 35 36 38 40 42 44 45 45 44 44 42 40 43 44 44 52 55 52 54 55 51 55 64 63 64 67 67 69 72 72 70 65 54 38 24 14
3 3 4 3 4 4 4 4 5 5 5 5 5 6 6 7 9 10 11 12 12 13 14 16 18 19 19 19 19 19 19 19 20 21 22 23 23 23 23 23 24 24 25 26 27 29 31 31 31 33 32 31 34 37 38 41 43 42 42 42 41 40 38 39 43 45 46 50 52 54 57 53 50 59 64 62 63 65 66 70 73 75 74 69 59 44 28 18
2 2 3 3 3 3 3 4 4 4 4 5 5 5 6 6 8 10 11 11 12 13 14 16 18 19 20 19 19 19 19 20 21 22 22 23 23 24 24 24 24 25 26 26 27 30 32 32 34 35 34 32 33 36 38 42 44 41 39 39 40 40 40 41 44 47 49 51 53 57 57 51 52 62 64 61 63 64 65 69 73 77 77 73 66 51 34 23
2 2 2 2 2 3 3 3 3 3 4 4 5 5 6 6 7 9 10 11 12 13 13 15 17 19 19 19 20 19 19 20 21 22 23 24 24 25 25 25 25 26 26 27 28 29 31 34 34 36 38 34 33 39 41 42 45 42 38 38 41 43 44 44 46 50 51 53 56 57 53 50 56 63 62 62 63 63 64 67 72 77 78 77 73 60 43 30
2 2 2 2 2 2 2 2 2 3 3 4 5 5 5 6 6 8 9 9 11 12 13 14 16 18 19 19 20 20 20 21 21 21 23 23 24 25 25 25 26 26 26 28 29 29 31 33 33 39 43 36 34 40 40 42 49 45 37 37 41 43 45 46 48 50 52 54 55 52 48 52 60 62 60 62 63 63 64 67 70 74 78 81 79 68 53 36
Wind_Speed
7 5 1 2 1 2 2 1 4 6 4 6 11 11 9 8 5 3 1 1 2 4 7 9 9 10 11 12 14 12 10 15 17 15 13 11 12 13 12 12 11 10 10 9 8 7 8 11 12 11 12 15 15 14 13 12 14 16 16 10 5 5 9 10 10 12 14 16 17 18 21 22 21 22 23 22 22 22 18 15 16 20 26 30 33 35 34 34
8 7 4 1 3 2 2 1 3 3 4 9 11 10 8 6 3 1 1 3 4 7 8 9 10 11 12 12 12 10 9 17 16 10 9 10 12 12 11 10 9 8 8 7 7 9 11 12 10 10 13 11 10 12 12 13 14 14 14 8 4 6 9 10 10 14 16 16 18 19 19 21 22 22 22 22 20 17 13 12 14 18 24 30 34 35 36 38
8 8 6 3 4 3 4 1 5 5 8 10 9 8 5 2 1 2 4 5 6 8 9 9 10 12 12 10 11 9 10 17 13 6 9 11 11 10 9 8 7 7 7 7 8 10 11 10 10 12 11 5 7 11 12 13 12 11 11 5 7 8 6 10 12 14 16 17 19 19 19 20 21 21 20 20 18 15 17 21 22 23 26 31 35 35 36 39
8 8 7 4 2 2 4 3 9 9 10 9 6 5 2 1 3 4 5 6 7 9 9 9 10 10 10 9 11 11 10 14 11 7 10 10 9 9 8 7 7 6 7 8 9 10 10 9 11 14 12 5 8 12 11 11 10 10 9 7 8 8 6 10 13 14 16 18 19 20 22 21 19 20 17 17 18 16 21 26 28 31 31 33 37 38 38 39
8 8 9 5 1 2 3 6 9 8 7 5 3 2 3 3 5 6 6 7 8 10 10 10 10 9 8 7 8 7 5 9 9 8 9 8 8 8 7 7 7 7 8 9 9 10 11 12 13 14 12 6 6 10 11 11 11 10 10 11 9 9 9 11 15 17 18 20 21 22 22 21 19 18 15 16 19 20 23 27 31 34 33 33 34 36 37 37
11 9 8 5 2 3 4 9 8 6 4 2 2 3 4 5 6 7 7 8 10 12 11 11 10 8 7 8 8 7 5 6 8 7 7 7 7 7 7 7 7 8 9 9 11 13 14 15 13 10 9 8 8 9 10 10 10 9 10 12 11 12 10 12 18 19 20 21 21 22 22 22 18 13 14 19 19 20 24 29 32 31 29 28 29 30 32 32
13 10 8 6 3 2 6 10 6 3 1 2 3 4 5 6 7 8 9 10 11 11 10 10 10 8 8 9 9 10 8 6 7 6 6 6 6 6 7 8 8 9 10 12 14 15 14 14 12 10 10 12 10 9 12 12 13 13 13 12 12 14 12 15 21 20 22 23 21 23 23 19 12 10 15 19 19 21 28 32 32 29 27 27 27 28 29 30
13 9 8 6 5 5 7 8 4 2 2 3 4 4 5 6 7 9 10 11 11 10 9 9 9 8 7 6 7 10 8 5 6 5 5 6 6 7 8 8 9 10 13 14 14 14 14 13 12 12 12 13 10 11 16 15 16 17 14 12 14 15 13 18 25 25 26 24 25 26 21 15 10 14 18 19 20 24 32 33 28 27 27 29 29 30 32 35
12 9 5 6 8 6 5 4 2 2 3 4 4 4 5 6 8 9 10 10 9 9 8 8 8 7 7 5 6 9 6 5 6 6 6 7 7 8 9 10 11 13 14 14 14 14 14 14 13 12 12 14 13 12 16 16 16 16 13 14 17 17 14 19 27 28 26 25 29 25 17 14 12 18 20 20 22 26 34 31 24 26 30 32 32 34 38 39
10 9 7 7 6 3 3 1 1 2 4 4 4 5 5 6 9 10 10 9 8 7 7 6 5 4 5 5 6 8 6 5 6 6 7 8 9 9 10 12 13 14 14 14 14 14 15 15 15 13 13 16 14 12 15 16 16 16 14 16 21 20 17 21 27 28 28 27 29 23 13 14 14 17 21 22 23 29 34 27 24 29 33 35 35 38 40 38
5 5 5 5 4 3 2 2 3 4 4 4 5 6 6 8 9 9 9 8 7 6 6 5 4 2 3 5 7 7 6 6 6 7 8 9 10 11 11 13 13 14 14 15 15 15 17 16 15 14 14 15 14 12 15 16 16 16 16 18 21 23 19 23 27 28 29 28 28 20 8 12 18 21 22 22 24 31 31 24 25 32 34 36 38 41 41 38
2 3 4 4 4 3 3 3 3 4 4 4 6 7 8 8 9 8 7 6 5 5 5 4 2 1 3 6 6 4 5 6 6 7 9 9 11 12 12 13 13 14 15 16 16 17 18 16 14 17 15 14 14 12 12 15 18 18 19 18 19 20 17 20 26 26 29 28 28 19 6 10 20 23 23 21 25 32 30 25 28 34 37 39 41 44 42 40
2 3 4 4 5 5 4 4 4 4 4 5 7 8 8 8 7 7 6 5 4 4 4 3 2 2 5 6 5 4 5 5 6 7 9 11 12 12 13 13 14 15 16 17 17 17 17 16 15 16 14 14 13 10 10 14 18 19 18 17 18 17 12 17 22 24 28 28 28 20 6 10 22 22 22 23 28 33 30 28 31 35 38 40 43 44 41 40
3 3 4 4 5 5 4 4 4 4 6 7 8 9 8 7 7 6 6 5 4 3 3 4 4 4 5 5 6 7 6 6 8 8 10 11 12 13 13 14 15 16 16 16 16 15 16 16 15 13 14 13 11 10 12 15 18 19 15 16 20 19 15 18 20 24 28 27 27 20 7 10 22 22 23 25 29 32 30 28 31 36 39 41 43 43 40 38
5 3 4 5 5 5 5 5 5 6 7 8 9 8 7 6 6 5 4 4 4 4 4 5 6 5 5 6 7 8 8 9 10 10 11 12 12 13 14 15 16 15 16 15 15 14 14 16 13 12 13 11 10 11 10 11 17 20 16 15 19 20 18 17 19 24 27 25 23 19 12 11 20 23 25 27 30 32 29 28 31 36 40 41 42 42 40 38
6 4 3 5 5 5 5 5 6 7 7 8 8 7 6 6 5 4 4 4 4 5 6 6 6 6 6 7 8 8 9 10 10 11 12 13 14 15 16 16 15 15 15 14 14 14 13 14 13 12 11 9 12 10 5 9 18 20 17 16 15 18 20 16 19 25 26 24 20 18 15 12 20 25 27 27 30 31 28 29 32 36 39 39 41 42 41 41
7 4 3 5 5 5 6 7 7 7 7 7 7 7 6 5 4 4 4 5 5 5 6 7 7 8 8 9 9 7 7 9 11 12 12 13 15 15 16 15 15 16 14 13 13 13 13 14 14 13 12 10 13 12 10 14 18 18 19 19 16 18 19 15 19 23 24 24 20 17 13 13 22 26 27 28 29 29 28 29 31 35 38 38 41 42 42 48
7 4 4 5 5 6 7 7 7 8 8 7 7 7 7 6 6 5 5 5 5 4 5 5 5 6 8 9 9 7 9 11 11 12 12 14 15 16 16 15 15 15 13 13 13 13 14 14 12 10 13 15 15 18 18 16 15 17 19 22 22 21 18 14 19 22 23 23 19 16 12 14 24 26 27 27 27 28 28 28 31 35 36 37 41 41 45 54
7 4 4 5 5 6 6 7 8 8 8 8 7 6 7 8 9 8 7 6 4 4 5 6 6 6 7 8 8 9 11 12 11 12 13 15 15 16 15 14 14 15 15 14 11 13 14 11 9 12 17 20 19 20 21 17 16 17 17 20 24 22 18 17 20 21 23 24 19 15 12 16 24 27 26 25 25 28 28 29 32 35 36 38 41 42 50 58
6 4 4 5 5 6 6 8 8 8 8 7 6 6 6 7 9 9 8 6 4 6 8 9 8 8 8 8 8 10 12 11 11 14 14 15 15 14 14 14 14 14 14 11 10 13 14 12 13 18 20 20 19 18 20 20 18 19 17 16 20 23 24 22 20 20 22 25 21 13 12 19 27 28 24 22 25 28 29 30 32 34 36 39 41 46 54 57
6 5 5 6 6 7 8 8 8 8 8 8 8 7 7 8 9 9 6 4 6 8 8 8 8 8 8 8 9 10 10 10 12 14 14 14 14 13 14 15 14 13 12 11 12 13 13 14 18 20 19 17 16 18 22 21 19 20 17 14 18 23 28 23 18 20 20 22 20 13 13 22 29 28 23 22 25 28 30 30 31 34 37 39 43 51 54 53
5 6 7 8 8 9 9 8 9 10 10 10 9 9 10 9 10 9 6 6 9 9 7 7 6 7 8 9 9 9 9 11 13 13 13 13 13 13 14 14 14 13 13 12 12 12 13 17 19 17 17 16 16 20 22 20 20 20 16 17 24 26 27 21 17 18 17 18 19 13 14 23 30 28 23 24 27 28 29 29 31 35 37 40 47 52 51 51
7 8 9 9 9 9 8 8 9 10 10 9 8 9 9 9 9 8 6 8 9 9 8 6 5 5 6 7 9 8 8 10 11 11 12 12 12 13 13 14 14 13 12 10 9 10 14 17 17 16 16 17 19 20 20 21 21 18 16 22 29 29 25 20 19 20 16 15 15 14 17 25 28 25 24 27 28 26 26 28 31 34 37 43 49 51 50 52
8 9 9 9 8 8 8 8 8 8 6 4 4 4 5 6 7 6 6 7 7 7 7 7 7 4 3 4 7 8 7 8 9 10 11 11 12 13 13 14 14 13 13 9 7 10 15 16 16 16 17 19 19 19 20 23 23 19 20 26 30 28 21 17 20 21 18 12 11 16 20 22 21 23 27 28 25 24 26 29 32 36 40 46 50 50 51 54
8 8 8 8 8 8 7 7 7 6 3 1 1 1 2 2 3 2 4 4 5 7 5 4 6 5 3 2 3 5 7 7 8 9 10 11 12 13 13 14 14 15 14 11 8 10 13 16 17 16 18 20 18 18 21 24 24 22 23 28 28 24 18 16 16 20 21 12 11 17 14 11 17 25 29 26 23 26 28 31 35 39 43 48 50 52 54 56
8 8 8 8 7 6 6 5 4 3 2 2 1 0 0 1 2 1 1 1 2 6 6 3 3 5 5 2 2 2 3 6 8 9 9 11 12 13 13 13 13 14 14 11 9 9 10 14 17 18 19 20 17 18 21 23 23 22 24 28 24 17 16 15 14 18 18 12 15 16 8 10 20 23 24 24 24 28 30 34 38 41 45 50 52 53 55 57
8 8 8 7 6 4 3 3 3 3 3 2 1 1 1 1 2 3 1 2 3 4 5 4 4 4 4 4 3 3 1 4 7 7 9 11 11 12 12 13 13 13 14 12 8 7 9 12 17 19 19 19 19 18 20 22 22 23 26 27 20 13 14 13 12 14 14 16 17 9 5 14 21 20 22 24 24 28 32 36 39 44 49 52 52 53 55 58
8 8 7 6 4 2 1 2 3 3 3 3 2 1 2 1 1 3 2 2 3 3 4 3 3 3 3 4 5 5 4 5 7 7 9 11 11 10 11 13 11 12 14 12 10 8 8 11 15 18 18 20 20 18 20 22 22 24 28 28 19 12 13 12 13 13 11 15 12 4 9 14 17 21 22 21 23 29 33 36 40 46 51 53 53 54 55 55
8 7 6 4 3 2 2 3 3 3 3 3 2 1 2 0 1 2 2 2 3 1 1 2 2 2 2 3 4 5 6 6 7 7 9 10 10 9 10 11 9 9 13 14 13 11 9 10 13 17 19 21 20 18 20 22 23 26 30 32 22 13 13 9 10 12 8 9 6 4 14 12 11 17 16 16 24 28 31 35 40 48 51 52 54 54 53 53
7 6 5 3 2 3 3 4 4 4 3 2 2 1 1 2 3 2 1 3 3 2 1 1 1 1 1 2 3 5 5 6 7 8 9 9 11 10 9 11 8 8 12 15 14 12 11 10 12 18 20 21 20 18 20 22 24 28 32 35 25 15 14 7 6 8 5 4 2 4 18 16 8 8 11 18 25 28 32 36 42 50 52 52 52 52 51 55
7 6 4 3 3 4 4 4 4 3 3 2 2 1 0 3 3 2 2 2 3 3 2 1 1 1 1 1 3 4 4 5 6 7 7 8 9 7 8 11 9 8 12 16 15 15 14 11 13 18 20 21 20 18 20 22 24 27 31 34 26 15 11 6 5 4 3 3 3 10 24 19 7 10 19 24 27 32 36 39 47 53 52 50 50 51 53 58
7 5 4 3 4 5 4 4 4 3 2 2 2 2 2 2 3 4 4 3 3 4 3 1 1 1 1 0 1 2 3 4 5 5 5 6 8 7 8 13 13 8 8 13 15 15 15 12 12 17 20 21 21 18 19 21 22 24 29 32 22 10 8 4 2 3 5 7 11 20 27 15 10 18 25 26 32 38 37 43 52 54 50 49 50 53 57 59
6 4 4 4 5 5 4 3 3 2 2 2 2 3 3 2 3 5 6 5 3 3 5 2 1 2 1 1 1 1 2 3 3 4 5 6 8 10 11 13 14 10 7 11 14 14 13 9 8 14 19 22 22 18 18 19 19 22 27 28 15 4 5 4 2 3 5 12 24 28 20 11 13 21 26 31 37 36 38 48 55 51 49 51 53 56 56 56
5 4 5 5 5 5 4 3 3 2 3 3 3 3 4 3 4 5 6 7 4 3 4 2 2 3 2 2 1 2 2 3 3 4 6 7 7 10 10 10 12 12 11 11 12 13 10 6 8 13 17 22 22 17 16 17 17 18 20 20 13 4 1 2 4 5 7 19 31 24 8 9 17 23 30 33 30 32 43 52 52 49 50 52 54 55 54 56
5 5 6 6 5 4 4 4 3 3 3 4 4 4 4 3 5 4 5 7 5 4 3 3 3 4 4 3 2 3 2 3 4 4 5 7 7 8 10 10 11 12 12 10 10 12 10 7 10 14 16 22 22 15 16 15 13 14 14 16 15 6 2 6 10 12 15 18 20 14 11 18 24 28 30 26 26 38 48 50 48 47 50 53 54 55 56 58
6 7 7 6 5 4 4 4 4 4 4 4 6 6 5 4 5 4 4 5 5 5 5 4 4 5 5 4 3 3 3 3 4 3 4 6 6 7 10 10 10 11 11 10 9 12 12 9 8 12 17 22 20 14 15 14 14 15 12 13 15 8 6 9 11 14 14 10 9 14 20 25 26 26 24 23 32 44 45 44 45 47 51 54 54 56 59 60
7 8 7 5 4 4 4 4 4 4 4 5 6 6 6 5 5 4 4 5 5 6 6 6 6 5 5 5 4 3 3 4 5 5 5 6 6 7 10 9 9 10 11 11 10 13 14 10 7 11 17 22 18 14 14 14 16 17 12 12 14 8 7 10 8 8 6 4 8 14 20 26 25 18 21 30 38 43 43 42 45 49 53 54 54 58 61 61
8 7 6 5 4 4 4 4 4 5 5 5 6 6 5 5 5 5 5 5 5 5 6 6 6 6 6 6 6 4 4 4 5 6 5 6 7 8 9 9 9 10 11 11 11 13 14 10 7 11 18 20 18 14 14 15 16 17 15 16 14 5 4 8 7 5 4 3 7 12 18 24 20 17 26 35 40 44 43 41 45 50 52 53 56 60 61 60
7 6 5 4 4 4 4 3 3 4 6 5 5 4 5 5 5 5 6 6 5 6 6 5 6 6 7 6 6 5 5 5 5 5 5 6 7 8 9 9 9 10 11 11 12 14 14 9 7 13 19 19 17 13 13 16 17 18 19 19 15 6 4 7 5 4 4 3 5 12 16 17 18 24 32 35 40 44 40 40 46 48 50 53 55 58 58 57
5 4 4 3 3 4 4 3 3 4 5 5 4 4 4 4 5 5 6 6 6 6 5 6 7 7 7 7 6 6 6 5 5 5 5 6 7 8 8 8 9 10 11 11 11 13 14 8 7 15 20 17 15 14 15 16 17 17 19 18 16 11 8 9 8 7 6 3 2 6 11 22 28 29 31 35 40 42 39 44 49 49 51 54 54 56 57 56
3 2 2 2 2 3 3 4 4 5 5 5 5 5 5 5 5 6 6 7 7 7 6 7 8 7 7 7 7 7 7 6 6 6 6 6 7 7 7 9 10 10 11 12 11 13 14 8 9 17 20 16 15 16 17 16 15 18 20 19 17 15 11 7 5 7 7 7 7 3 10 32 39 31 31 38 40 41 44 48 51 51 53 55 55 56 57 56
2 1 1 1 2 2 2 3 4 4 5 5 5 5 5 5 5 6 7 7 8 8 8 8 8 8 8 7 8 8 7 8 8 6 7 7 7 8 9 10 10 10 12 12 12 14 14 9 11 18 18 16 16 14 15 15 15 19 22 22 19 17 14 7 3 9 11 13 15 8 11 30 38 33 36 41 40 43 47 49 51 51 54 56 56 57 57 56
1 1 1 1 1 1 1 2 3 4 4 5 5 5 5 5 6 6 7 7 8 9 8 8 8 8 8 8 8 8 8 8 8 8 8 8 8 9 9 10 11 10 11 12 12 15 13 8 13 19 17 16 15 13 12 14 16 19 23 24 21 19 19 13 11 15 15 15 16 7 9 26 38 38 41 42 41 44 46 48 51 51 54 57 56 56 57 56
2 2 1 1 1 1 2 2 3 3 4 4 5 5 5 6 6 7 7 8 8 8 8 9 9 8 9 8 8 9 8 7 7 9 9 8 9 10 9 11 11 10 11 12 12 14 12 9 13 15 12 11 11 8 9 13 17 20 24 25 24 23 21 18 16 14 11 15 14 5 11 33 44 42 43 43 43 46 46 48 50 51 55 57 55 56 57 55
2 2 1 1 1 1 2 2 3 3 4 4 5 6 6 7 7 7 8 8 8 8 9 9 9 9 9 9 9 9 9 8 8 9 9 9 10 10 9 11 12 12 12 12 13 14 13 12 13 9 5 5 8 9 13 20 23 23 25 27 27 26 22 20 17 11 11 17 16 13 22 45 52 45 44 44 45 47 48 48 50 52 54 56 56 56 56 55
2 2 1 2 2 3 3 3 4 4 4 4 5 6 7 7 8 8 8 9 9 9 9 9 9 9 9 9 10 10 10 11 10 10 10 11 11 10 11 11 12 13 12 12 14 15 14 16 15 12 11 13 17 20 20 21 24 25 25 27 27 26 24 22 18 17 18 21 25 29 34 46 52 48 44 45 46 47 49 50 51 53 54 55 56 55 55 55
2 2 3 3 4 4 4 4 4 5 5 5 6 6 7 7 8 8 9 9 9 9 9 10 9 10 10 10 11 11 11 11 11 11 12 12 11 12 12 12 13 13 13 13 14 14 17 18 16 17 20 21 25 25 20 18 23 26 26 26 27 26 25 24 22 23 23 19 27 38 37 39 48 50 43 44 46 47 49 51 52 53 54 55 54 54 54 54
2 3 4 4 4 4 5 5 5 6 6 6 7 7 7 7 8 8 9 9 10 10 10 10 10 10 11 11 11 12 12 12 13 12 12 12 13 13 13 13 14 14 13 14 14 15 18 18 17 19 24 25 26 23 18 19 24 28 29 25 23 24 26 26 26 28 24 23 32 43 42 42 47 47 43 44 46 46 49 50 51 53 53 54 54 54 54 54
2 3 4 4 5 5 6 6 6 7 7 7 8 8 8 8 8 8 9 10 10 10 10 11 10 10 11 11 12 13 13 13 13 13 13 14 14 14 15 15 14 14 14 14 16 16 16 18 19 21 26 27 23 20 21 24 28 32 29 22 18 21 26 28 29 29 27 32 39 43 44 45 43 41 44 46 45 47 49 49 51 52 52 53 54 54 55 55
2 3 3 4 5 5 6 6 7 8 8 9 9 9 9 9 8 9 10 10 11 11 11 11 11 11 12 12 13 14 14 15 15 15 15 16 15 15 16 16 15 16 16 16 17 17 16 19 20 22 28 28 22 22 26 28 31 32 23 14 14 18 24 28 30 29 29 35 40 39 43 47 44 40 44 46 45 48 49 49 51 52 52 54 53 54 55 54
3 3 4 4 5 5 6 6 7 9 9 9 10 10 10 10 9 10 11 11 11 12 12 12 12 12 12 13 14 15 15 15 16 16 17 17 17 16 16 17 17 18 18 18 18 18 18 21 22 23 27 28 24 25 29 30 32 27 16 13 17 19 23 27 29 30 32 36 38 38 41 44 45 43 46 48 47 49 50 51 53 52 53 54 53 54 54 54
4 5 5 5 5 6 6 7 7 9 9 9 10 11 11 11 10 11 11 11 11 11 12 12 12 13 13 13 14 15 15 16 17 18 18 18 18 18 18 19 19 19 19 18 19 20 19 21 23 21 23 27 27 26 30 30 23 16 16 23 24 20 21 27 31 34 36 35 36 38 39 43 46 47 49 51 50 50 52 52 53 53 53 53 53 54 54 54
Wind_Direction
241 213 166 6 53 35 15 52 38 23 7 314 315 316 306 302 304 307 321 69 107 105 98 92 85 87 88 89 89 92 104 91 75 68 70 68 69 63 57 53 47 48 46 47 48 54 60 51 45 41 52 50 31 28 37 39 44 62 67 49 49 26 345 343 342 325 324 322 325 329 329 335 337 337 339 340 337 341 352 347 335 325 316 314 311 312 313 310
236 214 208 98 92 51 94 112 32 29 298 306 311 306 301 301 300 304 93 110 117 109 102 92 88 92 92 90 87 87 95 87 75 66 74 67 61 54 47 43 40 47 47 50 49 51 54 47 41 41 55 48 10 20 31 32 42 64 73 53 342 352 343 330 331 324 328 331 332 336 336 338 341 343 339 334 338 343 340 326 313 307 307 305 304 306 304 302
219 202 205 157 112 65 106 119 322 309 301 309 306 300 300 299 359 94 109 111 107 105 103 97 95 95 91 89 86 83 82 86 86 78 73 62 54 46 38 34 38 50 49 52 48 48 52 49 46 47 68 71 4 28 31 24 37 59 70 44 335 358 348 325 338 336 335 338 340 344 343 347 348 341 337 336 343 343 330 328 322 312 310 307 304 304 302 300
208 194 198 185 138 104 140 257 303 309 309 308 303 305 325 38 87 109 116 108 100 100 104 104 102 99 97 96 93 91 81 83 88 78 66 56 48 40 32 31 36 49 48 48 45 49 49 50 56 56 73 74 7 31 33 25 32 41 47 24 354 5 352 336 348 347 343 347 349 351 348 350 345 336 344 344 337 334 330 331 329 324 321 314 309 309 307 305
186 181 186 196 135 147 201 289 309 311 310 308 326 11 54 78 103 115 115 110 102 99 102 103 104 105 105 103 97 96 82 79 78 66 60 49 42 35 33 32 33 42 42 42 42 46 44 46 55 51 62 65 13 24 28 30 30 32 27 14 12 8 357 352 358 358 355 355 355 355 348 342 342 345 350 338 330 331 327 329 330 326 322 316 312 311 311 310
147 150 170 186 108 126 267 303 313 309 315 355 47 63 80 98 111 113 116 114 109 104 102 101 100 102 105 104 95 85 80 82 71 58 53 41 37 33 32 31 31 36 37 41 40 42 40 41 51 47 52 50 31 27 30 36 35 36 17 11 19 7 5 7 3 2 360 359 359 357 345 342 350 351 337 331 333 328 319 324 328 326 324 322 319 316 316 318
133 128 140 152 142 158 279 300 316 328 12 63 67 82 94 105 109 111 117 115 111 105 102 104 102 103 105 103 97 82 71 72 65 55 47 39 41 34 34 34 32 37 39 41 37 40 41 42 53 53 48 38 30 31 27 30 34 30 17 17 18 5 12 11 1 360 360 358 1 358 348 349 356 336 333 336 337 329 321 325 329 328 330 329 326 323 323 325
132 118 120 159 242 254 272 298 327 10 59 74 81 94 97 102 107 112 116 114 110 104 102 104 106 113 112 101 97 83 63 57 59 51 47 45 45 36 37 36 36 40 41 42 39 43 47 47 51 50 47 36 37 38 22 24 27 21 19 25 18 11 13 4 359 359 359 358 359 0 354 355 349 336 343 343 341 331 323 327 330 327 330 331 328 326 326 325
151 151 161 220 251 253 265 295 331 51 72 86 99 101 100 102 109 115 115 111 108 108 108 106 110 120 111 93 86 81 64 51 54 50 51 46 42 38 37 38 39 41 41 44 44 46 47 47 48 46 45 35 37 37 25 27 22 18 27 25 16 17 9 357 0 358 357 360 0 1 359 355 348 342 345 341 339 328 323 329 327 325 330 331 329 328 328 327
166 178 199 225 230 225 249 257 103 90 91 101 106 104 105 108 113 117 113 108 108 112 112 108 109 104 98 92 79 78 65 49 49 49 49 45 45 42 41 41 41 42 44 47 47 49 45 43 44 42 38 30 29 28 28 29 21 23 26 16 13 12 2 353 357 357 356 360 1 4 1 350 344 339 338 336 334 326 326 328 321 326 331 329 329 330 331 330
159 173 187 199 195 191 192 147 120 111 105 105 108 111 113 114 116 116 111 109 111 112 108 102 98 90 109 96 76 73 61 51 49 46 48 49 48 45 45 44 43 46 47 47 46 46 41 38 38 36 32 25 24 25 24 22 23 27 18 14 11 5 359 350 351 356 358 357 359 9 17 344 335 330 333 335 329 324 324 323 319 327 331 329 332 334 334 331
132 145 159 164 155 148 143 137 125 114 112 114 116 117 117 115 113 112 109 114 118 115 107 102 106 121 95 78 74 71 57 52 46 47 51 53 50 48 47 45 45 46 45 44 43 42 38 34 32 32 27 20 23 28 19 15 22 24 18 20 10 4 6 344 342 353 357 356 356 7 36 330 326 324 331 334 325 323 324 321 321 327 330 330 334 335 333 329
76 121 128 130 125 129 131 124 115 108 119 125 122 120 118 113 110 110 111 116 116 109 107 104 98 97 82 72 81 81 66 62 57 54 53 54 53 48 49 47 44 43 41 40 38 38 36 31 31 28 21 19 25 29 20 14 17 18 17 18 7 10 8 331 337 352 355 357 354 2 39 319 321 323 327 330 325 324 323 318 319 326 328 329 332 333 330 326
59 91 109 114 117 117 110 108 108 109 119 124 123 119 114 111 109 109 110 114 111 96 104 102 85 85 90 86 91 90 84 80 71 64 58 55 51 48 50 46 41 40 37 37 36 35 32 30 31 24 21 21 18 20 21 13 10 12 15 13 4 4 359 336 339 349 353 359 353 358 32 320 319 323 324 326 326 323 319 314 316 323 325 325 329 331 328 324
74 66 104 114 112 107 101 109 114 112 115 116 117 114 111 112 110 112 113 116 115 99 101 106 93 84 90 91 88 85 79 73 67 64 61 54 48 47 46 42 39 35 33 34 33 32 30 27 25 25 31 29 20 23 22 9 7 10 13 13 3 357 2 352 340 344 349 357 353 352 12 330 314 320 323 323 322 320 315 309 313 319 322 322 326 330 327 323
93 65 98 112 108 103 104 119 119 111 110 109 110 110 111 113 113 120 116 117 124 108 99 100 94 87 87 82 74 72 70 70 69 65 59 51 46 42 40 38 34 30 30 32 31 31 27 21 21 27 33 31 31 36 26 8 9 11 11 11 5 356 4 359 342 344 343 350 353 350 1 329 308 320 324 321 319 318 311 306 311 317 318 319 325 329 326 326
100 76 94 107 107 106 109 118 115 107 107 106 108 109 108 111 118 119 106 104 111 115 107 96 90 85 78 72 72 80 80 76 71 63 57 51 45 38 37 33 29 28 27 29 31 30 23 18 22 27 28 28 30 29 23 13 8 10 11 8 7 359 1 353 336 340 340 347 353 349 352 317 310 324 324 319 317 315 307 302 306 312 314 317 325 328 329 332
101 88 108 112 112 112 111 114 111 108 107 106 111 111 104 98 97 102 101 95 93 113 116 96 91 84 78 78 84 92 83 74 66 59 55 49 42 35 31 27 27 25 21 29 29 26 24 20 23 26 25 25 20 19 22 19 9 11 11 7 4 356 356 342 322 334 343 345 347 348 341 306 311 324 322 318 315 312 307 300 302 309 313 319 326 328 331 333
107 112 125 122 121 117 113 115 115 112 107 104 107 109 108 97 86 84 86 80 78 104 111 98 95 92 91 93 90 84 76 71 65 58 52 44 38 30 26 23 25 22 22 33 29 25 23 10 16 23 21 22 19 18 20 17 12 12 11 8 2 348 340 331 323 337 345 340 344 348 327 300 312 323 321 314 310 311 309 301 305 311 314 321 325 326 328 331
121 127 128 124 124 121 119 123 122 114 108 105 105 109 113 101 83 70 67 68 75 95 104 102 95 93 96 96 87 77 71 68 63 56 48 42 36 26 21 21 25 25 26 32 30 29 14 1 23 28 23 24 21 19 18 13 8 9 11 5 356 341 335 337 338 348 346 335 340 348 315 299 313 322 316 308 309 312 309 305 308 312 316 320 322 324 327 331
127 126 127 127 128 130 128 127 121 113 110 107 106 105 100 92 82 69 61 74 82 86 99 103 95 90 89 90 85 77 71 67 61 55 47 41 35 25 21 23 27 27 24 24 28 26 8 11 32 28 20 19 19 22 18 10 4 8 11 352 343 339 338 345 349 352 345 328 331 338 304 297 310 316 311 308 311 311 307 306 308 313 318 320 320 324 330 333
125 125 132 135 136 138 136 127 118 115 112 105 97 91 87 84 83 80 79 83 79 79 91 101 101 88 78 76 73 69 64 59 56 51 44 39 34 27 23 24 27 25 22 24 25 19 13 23 31 24 16 13 18 23 16 9 4 6 7 346 341 339 337 346 353 352 345 324 324 324 294 295 306 309 309 313 312 307 304 303 309 317 319 318 321 328 333 333
124 127 134 138 141 144 141 131 125 124 117 100 86 85 83 80 83 88 87 79 73 73 78 83 90 87 79 72 69 68 61 56 54 48 41 38 33 26 23 25 26 25 26 33 31 21 24 29 26 18 14 16 19 18 12 11 8 5 1 348 342 339 337 340 345 351 350 326 318 315 301 299 303 305 311 314 309 304 302 305 312 316 316 319 327 333 333 331
130 134 138 141 145 149 145 139 138 141 133 92 72 83 82 86 91 83 78 75 67 65 68 64 60 64 87 88 76 72 67 60 54 48 40 35 31 24 22 24 24 24 26 31 29 25 30 29 21 14 15 18 18 12 8 9 9 6 360 350 341 337 336 332 335 344 350 338 313 317 312 299 300 309 313 311 307 306 307 311 315 316 320 327 333 333 330 327
138 143 142 141 146 149 147 146 148 158 172 359 23 87 94 119 120 68 64 72 56 48 49 52 48 42 55 111 99 70 65 60 52 46 39 33 30 24 22 22 22 23 24 25 21 23 29 25 17 13 15 17 12 9 9 6 6 6 359 349 340 333 333 336 339 340 344 343 315 321 318 296 306 312 312 311 309 310 313 315 318 322 328 331 332 329 325 323
146 148 140 139 143 144 148 157 165 186 222 277 297 201 111 167 192 192 52 19 17 26 24 32 37 31 44 88 145 84 59 53 46 41 36 32 29 25 21 20 23 25 25 24 19 17 22 20 16 12 12 13 8 10 11 4 2 4 357 350 342 331 328 335 344 338 335 327 312 313 294 293 311 310 308 311 308 311 319 321 323 328 330 329 328 324 321 321
149 148 141 137 141 147 163 188 204 226 242 247 244 280 298 266 216 220 250 276 278 342 3 20 34 38 56 78 88 88 79 46 41 36 36 34 29 25 18 17 24 25 25 25 17 9 14 17 15 13 10 6 5 10 7 1 2 360 356 355 349 338 334 333 338 335 322 315 315 309 287 302 307 307 307 309 310 317 325 327 328 329 328 325 323 320 318 319
152 152 146 142 151 170 214 224 231 240 238 233 236 312 318 285 237 219 216 265 270 313 343 4 36 58 70 72 73 77 70 44 41 37 34 33 28 23 17 16 21 23 26 27 19 12 10 10 10 11 10 4 4 6 1 1 1 355 356 1 360 352 348 334 325 332 322 316 312 322 343 319 300 306 310 310 318 325 328 331 329 326 323 320 318 317 316 316
159 161 158 158 184 244 278 255 256 247 232 236 236 312 343 235 169 182 206 274 270 284 360 22 50 67 67 71 70 69 58 44 46 38 32 32 27 23 18 15 15 20 27 28 24 19 5 358 3 6 7 5 1 358 358 360 358 356 358 1 5 5 356 336 319 331 323 303 283 313 345 334 302 311 313 315 324 326 327 327 323 321 319 316 316 317 317 319
168 172 172 179 225 269 280 270 270 249 240 246 225 287 350 154 148 148 227 260 260 241 247 343 31 49 76 80 57 59 51 41 42 31 24 27 24 20 15 11 5 8 21 24 19 14 4 352 355 2 5 2 357 354 356 358 357 358 359 1 7 8 354 328 303 321 296 280 254 316 337 334 311 310 311 314 319 319 320 318 317 318 319 318 319 321 321 322
177 179 183 207 260 274 274 271 267 254 253 246 221 263 116 169 183 204 241 252 240 217 218 274 324 41 48 71 48 50 45 35 37 29 21 23 20 10 6 13 14 4 11 15 10 6 5 353 349 356 358 356 355 353 354 356 359 360 1 3 7 5 353 323 300 304 244 280 270 304 327 323 272 287 308 310 312 315 316 315 317 321 323 324 324 325 324 322
182 188 206 245 274 276 272 265 260 262 261 249 234 214 169 171 214 238 250 237 210 207 223 278 274 264 349 274 31 41 46 32 30 22 14 20 14 2 7 18 22 19 6 8 9 4 357 348 344 349 351 353 354 353 353 355 358 359 3 7 9 3 356 345 298 276 257 275 288 312 325 313 273 298 308 310 314 316 315 316 322 326 328 329 328 325 322 320
189 209 237 262 272 270 265 259 262 272 259 251 233 205 198 191 231 257 246 218 226 250 234 248 268 252 281 263 287 10 19 13 16 13 11 15 10 9 16 16 18 24 10 3 10 4 351 341 335 340 346 351 351 352 356 354 356 2 6 12 18 18 355 343 305 310 275 283 303 318 321 298 300 310 312 316 317 314 315 320 326 330 330 329 325 322 321 322
211 242 258 265 264 258 259 263 263 269 262 246 231 212 208 219 258 271 230 216 256 277 219 227 261 250 273 274 312 354 343 352 4 12 12 12 10 13 17 13 12 14 9 6 8 2 348 324 327 335 340 348 350 351 355 355 358 4 6 11 18 35 34 295 303 316 285 295 311 321 316 298 311 312 314 317 313 312 320 325 330 331 328 324 321 323 326 327
243 261 263 261 257 256 261 265 259 261 258 240 231 216 208 245 281 271 227 227 254 249 218 248 256 255 277 275 310 339 333 351 355 359 8 5 7 12 11 8 7 7 9 11 6 358 348 318 325 334 337 345 348 346 349 357 5 1 0 3 1 357 281 265 275 283 281 291 308 312 299 305 309 310 314 316 314 322 328 330 331 328 323 322 325 328 329 328
260 265 262 258 261 264 265 265 257 254 251 236 230 223 225 260 283 267 242 241 249 242 242 257 261 270 279 274 298 321 320 340 343 342 353 356 1 5 4 3 2 4 6 7 5 1 350 326 324 338 340 344 346 341 344 355 3 357 355 357 352 345 336 309 282 284 286 274 290 299 300 310 315 317 321 322 324 329 330 328 326 324 324 326 328 327 326 327
262 263 262 263 268 268 267 265 254 251 250 238 231 234 247 262 267 261 253 253 257 254 251 256 263 273 279 282 292 306 321 336 342 339 342 349 347 347 353 356 356 359 360 2 4 358 347 333 331 344 342 342 341 337 339 345 352 352 349 354 354 348 352 340 305 297 299 264 290 298 300 311 316 316 321 326 327 330 331 327 325 325 326 327 325 323 325 328
261 263 266 270 269 263 262 264 256 248 245 241 240 250 263 261 257 257 254 258 265 263 261 260 262 267 273 282 287 290 307 329 344 343 334 336 336 335 343 346 348 353 353 356 358 354 349 339 338 347 343 339 336 334 336 333 338 343 342 351 360 354 329 338 325 306 314 309 304 301 305 311 310 308 320 327 329 331 333 330 327 326 324 323 321 322 325 328
265 267 269 272 264 252 246 253 259 244 240 246 250 259 265 256 255 255 253 261 267 267 268 262 265 271 268 275 285 286 295 312 332 336 325 326 329 328 333 337 341 345 348 352 352 351 349 337 328 341 340 335 333 330 327 323 323 332 339 345 355 357 309 316 315 276 283 298 299 308 311 308 308 316 323 328 330 333 333 326 322 321 322 322 320 321 326 332
269 267 267 267 253 241 236 248 263 254 251 256 252 258 268 258 253 254 254 262 268 268 270 266 270 275 268 271 280 284 290 293 306 320 316 320 328 325 327 330 332 337 343 347 346 347 350 334 307 332 337 332 326 318 312 313 312 318 330 335 336 343 334 314 301 273 262 236 285 323 304 300 314 327 328 329 333 333 328 320 319 322 324 324 323 326 332 336
264 253 252 252 237 234 240 251 261 261 261 264 261 267 272 261 257 260 259 263 266 267 273 273 272 274 271 271 277 286 290 283 290 309 309 313 324 323 322 323 324 330 336 339 341 346 347 324 300 328 336 325 315 309 303 306 306 310 321 324 324 333 338 326 301 272 254 246 274 288 280 301 321 338 334 332 335 330 322 319 323 327 326 326 328 332 335 338
234 212 215 217 215 229 247 258 265 265 264 268 267 269 270 261 261 264 264 266 267 270 276 275 273 272 271 273 277 283 290 284 281 292 305 311 313 314 316 318 318 323 329 335 340 343 340 318 310 329 334 326 319 310 301 301 301 304 313 319 321 323 320 312 258 273 281 276 279 263 257 300 324 339 331 330 330 323 319 321 326 329 328 329 333 334 336 339
197 185 188 202 213 236 260 272 280 278 275 278 275 272 271 267 266 265 267 270 270 274 276 273 275 275 274 278 278 278 290 292 279 282 300 308 308 311 311 312 314 314 322 332 334 336 338 324 321 329 330 324 315 301 292 292 293 301 310 316 316 313 311 304 280 281 286 281 282 252 240 297 322 331 326 326 324 320 321 324 328 330 329 332 335 335 338 340
185 180 186 209 226 259 274 286 302 297 293 295 290 284 279 274 269 266 268 271 272 275 277 275 277 278 278 280 279 278 286 291 284 285 295 302 305 308 305 308 313 308 313 324 326 331 338 328 323 327 329 325 314 301 300 299 300 305 309 311 310 309 308 303 296 290 278 283 288 217 247 299 318 327 326 326 325 323 326 328 331 332 331 334 337 337 339 340
209 211 215 241 258 283 291 304 317 313 310 308 299 291 284 279 274 270 270 271 272 276 278 279 279 279 281 281 279 281 280 283 290 290 294 301 303 304 303 306 311 306 307 315 320 326 329 325 322 315 303 316 311 308 313 310 307 305 306 307 307 306 301 298 298 281 270 290 284 244 273 304 321 332 331 329 328 328 330 331 332 333 333 336 338 338 339 339
236 237 245 268 273 278 286 303 313 309 306 306 298 291 287 283 278 274 273 273 275 278 280 282 282 281 283 284 281 281 279 281 288 290 294 300 301 302 303 304 307 305 301 305 315 320 319 322 326 311 297 304 309 314 317 309 304 305 308 307 304 300 296 292 282 272 287 297 282 276 288 304 320 334 335 331 331 331 332 332 333 334 336 338 338 338 339 339
262 270 281 287 283 280 281 286 293 296 298 299 296 293 292 289 283 279 278 276 277 281 281 284 287 283 284 287 284 283 282 281 285 289 292 297 299 301 301 303 306 303 296 298 307 314 313 317 324 317 310 314 318 321 318 304 303 309 311 307 301 296 290 284 281 291 304 292 284 302 308 301 314 332 335 331 332 331 331 332 333 335 337 338 338 338 338 339
296 298 298 293 285 286 288 283 281 283 291 294 292 293 294 292 289 284 282 280 280 282 284 288 290 286 286 288 286 285 284 284 287 291 293 296 299 300 300 302 304 301 298 296 300 308 311 312 318 317 314 319 323 322 316 310 313 316 316 312 303 293 288 288 295 303 300 275 286 311 313 302 316 334 334 330 331 329 329 331 332 335 337 338 338 338 339 341
323 320 313 299 289 290 289 285 280 280 286 288 288 291 291 293 294 290 285 285 285 285 285 287 291 290 288 287 286 285 286 287 290 292 294 297 300 302 301 301 301 300 300 298 298 304 307 309 315 315 313 320 326 323 321 322 321 321 320 314 299 289 288 292 302 306 294 285 299 313 310 309 327 337 331 330 331 328 328 330 331 335 337 338 339 339 340 341
343 333 325 314 303 297 291 288 284 282 283 285 287 291 291 293 296 292 288 287 286 286 286 289 293 292 290 290 288 287 288 289 290 291 294 297 301 303 301 300 301 299 300 301 298 298 301 306 312 311 311 321 331 327 325 325 321 320 319 311 298 293 289 292 301 307 300 301 313 314 305 316 336 337 328 329 330 328 329 331 332 336 337 339 340 340 340 341
338 331 328 324 319 310 299 294 290 287 288 288 289 290 290 292 294 292 290 289 287 287 287 289 292 293 293 292 290 290 292 291 289 291 292 294 298 300 297 299 300 296 297 301 297 295 299 303 310 312 310 317 327 327 325 323 316 312 315 322 317 306 299 300 305 310 309 311 316 309 304 320 337 335 329 331 330 329 331 332 333 336 337 339 340 340 340 341
320 319 318 317 321 316 305 301 298 295 296 293 290 289 288 290 291 291 292 293 292 290 287 289 293 294 295 296 293 293 294 292 291 292 292 292 294 297 297 298 297 293 294 297 295 295 297 300 308 311 306 312 322 324 322 321 314 311 326 328 319 309 307 310 313 316 318 316 312 309 314 328 335 333 331 333 332 331 332 333 334 335 338 339 339 340 341 341